DW7061 Weather Reports


Display with metric or nautical units.
time (UTC)temp
F
wind
direction
speed
MPH
gust
MPH
rain 1hr
in
rain 24hr
in
rain mn
in
humidity
%
barometer
mb
20260507073017 45 0.0 1.0 0.00 0.00 0.00 96 1006.9
20260507072017 45 0.0 1.0 0.00 0.00 0.00 96 1006.3
20260507071018 45 0.0 1.0 0.00 0.00 0.00 96 1006.6
20260507070017 45 0.0 2.0 0.00 0.00 0.00 96 1007.0
20260507065016 45 0.0 1.0 0.00 0.00 0.00 96 1006.5
20260507064017 46 0.0 1.0 0.00 0.00 0.00 96 1006.4
20260507063017 46 0.0 0.0 0.00 0.00 0.00 96 1006.2
20260507062017 46 0.0 1.0 0.00 0.00 0.00 96 1006.1
20260507061017 46 0.0 0.0 0.00 0.00 0.00 96 1006.0
20260507060038 46 0.0 0.0 0.00 0.00 0.00 96 1006.3
20260507055017 46 0.0 0.0 0.00 0.00 0.00 96 1006.5
20260507054017 46 0.0 1.0 0.00 0.00 0.00 96 1006.5
20260507053017 46 0.0 1.0 0.00 0.00 0.00 96 1007.0
20260507052017 46 0.0 2.0 0.00 0.00 0.00 96 1006.7
20260507051018 47 0.0 1.0 0.00 0.00 0.00 96 1007.2
20260507050017 47 0.0 3.0 0.00 0.00 0.00 96 1007.3
20260507045019 47 0.0 0.0 0.00 0.00 0.00 96 1007.2
20260507044017 48 0.0 1.0 0.00 0.00 0.00 96 1007.2
20260507043016 48 0.0 1.0 0.00 0.00 0.00 96 1007.1
20260507042018 48 0.0 0.0 0.00 0.00 0.00 96 1006.9
20260507041017 48 0.0 1.0 0.00 0.00 0.00 96 1006.7
20260507040019 48 0.0 0.0 0.00 0.00 0.00 96 1006.7
20260507035018 48 0.0 0.0 0.00 0.00 0.00 96 1006.8
20260507034018 49 0.0 1.0 0.00 0.00 0.00 96 1006.9
20260507033018 49 0.0 1.0 0.00 0.00 0.00 96 1006.8
20260507032017 49 0.0 1.0 0.00 0.00 0.00 96 1006.8
20260507031017 49 0.0 2.0 0.00 0.00 0.00 96 1006.6
20260507030037 49 248 1.0 4.0 0.00 0.00 0.00 96 1006.5
20260507025018 50 0.0 2.0 0.00 0.00 0.00 96 1006.8
20260507024017 50 0.0 2.0 0.00 0.00 0.00 96 1006.6
20260507023018 50 248 1.0 3.0 0.00 0.00 0.00 96 1006.6
20260507022058 50 0.0 2.0 0.00 0.00 0.00 96 1006.4
20260507021017 51 0.0 3.0 0.00 0.00 0.00 96 1006.4
20260507020017 52 0.0 2.0 0.00 0.00 0.00 96 1006.6
20260507015017 53 270 1.0 4.0 0.00 0.00 0.00 96 1006.6
20260507014017 54 270 1.0 2.0 0.00 0.00 0.00 96 1006.5
20260507013038 54 0.0 0.0 0.00 0.00 0.00 96 1006.0
20260507012017 55 0.0 1.0 0.00 0.00 0.00 96 1005.8
20260507010037 56 248 1.0 7.0 0.00 0.00 0.00 97 1005.4
20260507005017 56 248 1.0 3.0 0.00 0.00 0.00 97 1005.4
20260507004018 56 248 1.0 3.0 0.00 0.00 0.00 97 1005.4
20260507003018 56 248 1.0 3.0 0.00 0.00 0.00 97 1005.2
20260507002017 56 248 1.0 4.0 0.00 0.00 0.00 97 1005.0
20260507001018 56 248 2.0 5.0 0.00 0.00 0.00 97 1004.9
20260507000018 56 248 3.0 5.0 0.00 0.00 0.00 97 1004.7
20260506235017 56 248 1.0 4.0 0.00 0.00 0.00 97 1004.6
20260506234017 56 248 2.0 4.0 0.00 0.00 0.00 97 1004.5
20260506233017 56 248 1.0 4.0 0.00 0.00 0.00 97 1004.6
20260506232018 56 225 2.0 6.0 0.00 0.00 0.00 97 1004.4
20260506231017 56 248 1.0 6.0 0.00 0.00 0.00 97 1004.2
20260506230038 56 248 1.0 4.0 0.00 0.00 0.00 96 1004.2
20260506225018 56 248 1.0 4.0 0.00 0.00 0.00 96 1004.1
20260506224038 56 248 2.0 5.0 0.00 0.00 0.00 96 1004.2
20260506223018 56 248 2.0 7.0 0.00 0.00 0.00 96 1004.2
20260506222017 56 248 2.0 5.0 0.00 0.00 0.00 96 1004.3
20260506221018 56 248 2.0 6.0 0.00 0.00 0.00 96 1004.3
20260506220017 56 248 1.0 5.0 0.00 0.00 0.00 96 1004.3
20260506215017 56 248 2.0 4.0 0.00 0.00 0.00 96 1004.3
20260506214017 56 248 2.0 5.0 0.00 0.00 0.00 96 1004.3
20260506213018 56 248 2.0 6.0 0.00 0.00 0.00 96 1004.4
20260506212017 56 248 2.0 6.0 0.00 0.00 0.00 96 1004.4
20260506211038 56 225 2.0 10.0 0.00 0.00 0.00 96 1004.4
20260506210018 56 248 1.0 5.0 0.00 0.00 0.00 96 1004.4
20260506205018 56 225 1.0 5.0 0.00 0.00 0.00 96 1004.6
20260506204017 56 248 2.0 6.0 0.00 0.00 0.00 95 1004.6
20260506203018 56 225 3.0 8.0 0.00 0.00 0.00 95 1004.8
20260506202017 56 248 1.0 5.0 0.00 0.00 0.00 95 1004.9
20260506201017 56 248 1.0 6.0 0.00 0.00 0.00 95 1005.0
20260506200017 56 248 1.0 5.0 0.00 0.00 0.00 95 1005.1
20260506195018 56 248 2.0 4.0 0.00 0.00 0.00 95 1005.3
20260506194017 57 248 1.0 4.0 0.00 0.00 0.00 95 1005.3
20260506193017 57 225 2.0 9.0 0.00 0.00 0.00 95 1005.3
20260506192017 57 248 2.0 10.0 0.00 0.00 0.00 95 1005.5
20260506191037 57 248 2.0 6.0 0.00 0.00 0.00 94 1005.7
20260506190018 57 248 2.0 6.0 0.00 0.00 0.00 94 1005.6
20260506185017 57 135 1.0 8.0 0.00 0.00 0.00 94 1005.5
20260506184018 58 225 1.0 5.0 0.00 0.00 0.00 94 1005.6
20260506183039 58 225 2.0 8.0 0.00 0.00 0.00 93 1005.8
20260506182017 58 270 2.0 8.0 0.00 0.00 0.00 93 1005.9
20260506181017 58 248 1.0 4.0 0.00 0.00 0.00 93 1005.6
20260506180018 59 270 1.0 5.0 0.00 0.00 0.00 93 1005.7
20260506175037 59 180 1.0 4.0 0.00 0.00 0.00 92 1006.2
20260506174037 59 248 2.0 12.0 0.00 0.00 0.00 91 1006.4
20260506173017 60 248 1.0 2.0 0.00 0.00 0.00 91 1006.8
20260506172018 60 0.0 3.0 0.00 0.00 0.00 89 1006.9
20260506171017 61 0.0 3.0 0.00 0.00 0.00 87 1007.0
20260506170017 62 248 1.0 4.0 0.00 0.00 0.00 84 1007.0
20260506165017 62 248 1.0 4.0 0.00 0.00 0.00 82 1006.8
20260506164018 63 248 1.0 5.0 0.00 0.00 0.00 81 1007.0
20260506163017 63 225 1.0 2.0 0.00 0.00 0.00 81 1007.2
20260506162040 63 248 1.0 5.0 0.00 0.00 0.00 82 1007.1
20260506161017 62 248 1.0 4.0 0.00 0.00 0.00 83 1007.2
20260506160018 62 248 1.0 4.0 0.00 0.00 0.00 84 1007.5
20260506155017 61 248 1.0 7.0 0.00 0.00 0.00 84 1007.7
20260506154017 61 248 1.0 3.0 0.00 0.00 0.00 84 1007.7
20260506153017 61 248 1.0 5.0 0.00 0.00 0.00 84 1007.8
20260506152018 61 248 1.0 5.0 0.00 0.00 0.00 85 1008.0
20260506151017 60 225 2.0 11.0 0.00 0.00 0.00 86 1008.0
20260506150017 60 225 2.0 9.0 0.00 0.00 0.00 86 1008.1
20260506145018 60 248 2.0 8.0 0.00 0.00 0.00 85 1008.1
20260506144017 60 248 1.0 4.0 0.00 0.00 0.00 86 1008.1
20260506143017 60 248 2.0 5.0 0.00 0.00 0.00 86 1008.2
20260506142017 60 248 2.0 6.0 0.00 0.00 0.00 86 1008.0
20260506141017 60 225 2.0 6.0 0.00 0.00 0.00 86 1008.4
20260506140157 60 248 3.0 8.0 0.00 0.00 0.00 87 1008.1
20260506135017 60 248 1.0 5.0 0.00 0.00 0.00 87 1007.7
20260506134037 59 270 2.0 5.0 0.00 0.00 0.00 87 1007.9
20260506133018 59 248 2.0 6.0 0.00 0.00 0.00 88 1007.9
20260506132017 59 248 2.0 5.0 0.00 0.00 0.00 87 1008.0
20260506131017 59 248 2.0 6.0 0.00 0.00 0.00 88 1008.1
20260506130017 58 248 1.0 6.0 0.00 0.00 0.00 89 1008.2
20260506125018 58 248 1.0 3.0 0.00 0.00 0.00 89 1008.3
20260506124017 58 248 1.0 4.0 0.00 0.00 0.00 90 1008.4
20260506123037 58 248 1.0 4.0 0.00 0.00 0.00 90 1008.5
20260506122038 57 270 2.0 4.0 0.00 0.00 0.00 90 1008.5
20260506121017 57 248 2.0 4.0 0.00 0.00 0.00 90 1008.6
20260506120017 57 225 1.0 4.0 0.00 0.00 0.00 91 1008.4
20260506115018 57 225 1.0 9.0 0.00 0.00 0.00 91 1008.5
20260506114017 56 248 1.0 4.0 0.00 0.00 0.00 91 1008.6
20260506113017 56 225 2.0 8.0 0.00 0.00 0.00 91 1008.6
20260506112018 56 225 1.0 9.0 0.00 0.00 0.00 91 1008.4
20260506111017 56 225 1.0 8.0 0.00 0.00 0.00 92 1008.6
20260506110017 55 248 1.0 6.0 0.00 0.00 0.00 92 1008.8
20260506105058 56 225 2.0 7.0 0.00 0.00 0.00 92 1008.8
20260506104017 55 248 2.0 5.0 0.00 0.00 0.00 92 1008.9
20260506103037 55 225 1.0 8.0 0.00 0.00 0.00 92 1008.7
20260506102018 55 248 2.0 7.0 0.00 0.00 0.00 92 1008.5
20260506101017 55 248 1.0 5.0 0.00 0.00 0.00 92 1008.6
20260506100018 55 248 1.0 5.0 0.00 0.00 0.00 91 1008.7
20260506095017 55 248 1.0 4.0 0.00 0.00 0.00 91 1008.5
20260506094017 55 248 1.0 3.0 0.00 0.00 0.00 91 1008.6
20260506093037 55 270 1.0 4.0 0.00 0.00 0.00 90 1008.6
20260506092058 55 248 1.0 5.0 0.00 0.00 0.00 90 1008.5
20260506091017 55 113 1.0 10.0 0.00 0.00 0.00 90 1008.7
20260506090017 56 270 2.0 10.0 0.00 0.00 0.00 90 1008.7
20260506085038 56 225 2.0 5.0 0.00 0.00 0.00 89 1008.8
20260506084037 56 248 1.0 5.0 0.00 0.00 0.00 89 1008.9
20260506083017 56 225 2.0 7.0 0.00 0.00 0.00 89 1008.9
20260506082038 56 248 1.0 5.0 0.00 0.00 0.00 89 1008.8
20260506081037 56 248 1.0 5.0 0.00 0.00 0.00 88 1008.9